| time (UTC) | temp F | wind direction | speed MPH | gust MPH | rain 1hr in | rain 24hr in | rain mn in | humidity % | barometer mb |
| 20260503041103 | 38 | 252 | 1.0 | 2.0 | 0.00 | 0.00 | 0.00 | 81 | 1014.5 |
| 20260503040603 | 38 | 252 | 1.0 | 2.0 | 0.00 | 0.00 | 0.00 | 80 | 1014.6 |
| 20260503040104 | 38 | 254 | 1.0 | 2.0 | 0.00 | 0.00 | 0.00 | 80 | 1014.6 |
| 20260503034604 | 39 | 253 | 1.0 | 2.0 | 0.00 | 0.00 | 0.00 | 79 | 1014.5 |
| 20260503034103 | 39 | 253 | 1.0 | 2.0 | 0.00 | 0.00 | 0.00 | 79 | 1014.6 |
| 20260503033604 | 39 | 254 | 0.0 | 0.0 | 0.00 | 0.00 | 0.00 | 79 | 1014.6 |
| 20260503033103 | 39 | 254 | 0.0 | 1.0 | 0.00 | 0.00 | 0.00 | 79 | 1014.6 |
| 20260503032603 | 39 | 254 | 1.0 | 2.0 | 0.00 | 0.00 | 0.00 | 79 | 1014.6 |
| 20260503032104 | 40 | 254 | 1.0 | 3.0 | 0.00 | 0.00 | 0.00 | 78 | 1014.7 |
| 20260503031603 | 40 | 283 | 1.0 | 3.0 | 0.00 | 0.00 | 0.00 | 78 | 1014.7 |
| 20260503031103 | 40 | 256 | 1.0 | 3.0 | 0.00 | 0.00 | 0.00 | 78 | 1014.7 |
| 20260503030604 | 40 | 239 | 2.0 | 3.0 | 0.00 | 0.00 | 0.00 | 78 | 1014.7 |
| 20260503030104 | 40 | 265 | 2.0 | 3.0 | 0.00 | 0.00 | 0.00 | 78 | 1014.7 |
| 20260503025604 | 40 | 249 | 1.0 | 3.0 | 0.00 | 0.00 | 0.00 | 78 | 1014.7 |
| 20260503025103 | 40 | 251 | 1.0 | 2.0 | 0.00 | 0.00 | 0.00 | 78 | 1014.8 |
| 20260503024604 | 40 | 251 | 1.0 | 2.0 | 0.00 | 0.00 | 0.00 | 78 | 1014.8 |
| 20260503023603 | 40 | 264 | 1.0 | 3.0 | 0.00 | 0.00 | 0.00 | 78 | 1014.8 |
| 20260503022103 | 41 | 267 | 1.0 | 3.0 | 0.00 | 0.00 | 0.00 | 78 | 1015.0 |
| 20260503021103 | 41 | 291 | 1.0 | 2.0 | 0.00 | 0.00 | 0.00 | 77 | 1015.1 |
| 20260503020603 | 41 | 291 | 1.0 | 3.0 | 0.00 | 0.00 | 0.00 | 77 | 1015.1 |
| 20260503015103 | 41 | 255 | 1.0 | 3.0 | 0.00 | 0.00 | 0.00 | 75 | 1015.0 |
| 20260503014604 | 41 | 283 | 2.0 | 3.0 | 0.00 | 0.00 | 0.00 | 75 | 1015.0 |
| 20260503014104 | 42 | 273 | 2.0 | 3.0 | 0.00 | 0.00 | 0.00 | 74 | 1015.0 |
| 20260503013603 | 42 | 252 | 2.0 | 5.0 | 0.00 | 0.00 | 0.00 | 73 | 1015.0 |
| 20260503013103 | 42 | 297 | 2.0 | 5.0 | 0.00 | 0.00 | 0.00 | 72 | 1015.0 |
| 20260503012104 | 42 | 302 | 3.0 | 5.0 | 0.00 | 0.00 | 0.00 | 69 | 1015.0 |
| 20260503011603 | 42 | 302 | 2.0 | 8.0 | 0.00 | 0.00 | 0.00 | 68 | 1015.0 |
| 20260503011103 | 42 | 289 | 4.0 | 8.0 | 0.00 | 0.00 | 0.00 | 68 | 1015.0 |
| 20260503010603 | 42 | 310 | 5.0 | 10.0 | 0.00 | 0.00 | 0.00 | 68 | 1014.9 |
| 20260503010104 | 42 | 329 | 3.0 | 7.0 | 0.00 | 0.00 | 0.00 | 68 | 1014.9 |
| 20260503005603 | 42 | 300 | 3.0 | 8.0 | 0.00 | 0.00 | 0.00 | 67 | 1014.9 |
| 20260503005103 | 42 | 307 | 2.0 | 9.0 | 0.00 | 0.00 | 0.00 | 67 | 1014.8 |
| 20260503004604 | 42 | 338 | 3.0 | 10.0 | 0.00 | 0.00 | 0.00 | 67 | 1014.8 |
| 20260503004103 | 42 | 330 | 3.0 | 9.0 | 0.00 | 0.00 | 0.00 | 66 | 1014.8 |
| 20260503003604 | 42 | 320 | 5.0 | 8.0 | 0.00 | 0.00 | 0.00 | 66 | 1014.8 |
| 20260503003104 | 42 | 327 | 4.0 | 9.0 | 0.00 | 0.00 | 0.00 | 66 | 1014.7 |
| 20260503002603 | 42 | 343 | 3.0 | 8.0 | 0.00 | 0.00 | 0.00 | 66 | 1014.7 |
| 20260503001603 | 42 | 329 | 6.0 | 12.0 | 0.00 | 0.00 | 0.00 | 65 | 1014.6 |
| 20260503001103 | 43 | 324 | 3.0 | 10.0 | 0.00 | 0.00 | 0.00 | 65 | 1014.6 |
| 20260503000603 | 43 | 341 | 3.0 | 10.0 | 0.00 | 0.00 | 0.00 | 65 | 1014.6 |
| 20260503000103 | 43 | 336 | 3.0 | 9.0 | 0.00 | 0.00 | 0.00 | 65 | 1014.5 |
| 20260502235605 | 43 | 349 | 6.0 | 10.0 | 0.00 | 0.00 | 0.00 | 65 | 1014.5 |
| 20260502235104 | 43 | 327 | 3.0 | 8.0 | 0.00 | 0.00 | 0.00 | 65 | 1014.5 |
| 20260502234603 | 43 | 327 | 6.0 | 12.0 | 0.00 | 0.00 | 0.00 | 64 | 1014.4 |
| 20260502234103 | 43 | 315 | 3.0 | 9.0 | 0.00 | 0.00 | 0.00 | 64 | 1014.4 |
| 20260502233603 | 43 | 317 | 3.0 | 9.0 | 0.00 | 0.00 | 0.00 | 63 | 1014.5 |
| 20260502233103 | 43 | 327 | 3.0 | 8.0 | 0.00 | 0.00 | 0.00 | 63 | 1014.4 |
| 20260502232603 | 43 | 7 | 6.0 | 9.0 | 0.00 | 0.00 | 0.00 | 63 | 1014.5 |
| 20260502232103 | 43 | 347 | 4.0 | 7.0 | 0.00 | 0.00 | 0.00 | 64 | 1014.4 |
| 20260502231604 | 43 | 330 | 5.0 | 12.0 | 0.00 | 0.00 | 0.00 | 63 | 1014.4 |
| 20260502231103 | 44 | 332 | 4.0 | 9.0 | 0.00 | 0.00 | 0.00 | 63 | 1014.4 |
| 20260502230603 | 44 | 340 | 6.0 | 12.0 | 0.00 | 0.00 | 0.00 | 64 | 1014.4 |
| 20260502230104 | 44 | 331 | 4.0 | 9.0 | 0.00 | 0.00 | 0.00 | 64 | 1014.3 |
| 20260502225604 | 44 | 327 | 7.0 | 12.0 | 0.00 | 0.00 | 0.00 | 65 | 1014.3 |
| 20260502225104 | 44 | 299 | 5.0 | 10.0 | 0.00 | 0.00 | 0.00 | 70 | 1014.3 |
| 20260502224604 | 44 | 295 | 3.0 | 8.0 | 0.00 | 0.00 | 0.00 | 70 | 1014.3 |
| 20260502223604 | 44 | 276 | 4.0 | 8.0 | 0.00 | 0.00 | 0.00 | 72 | 1014.2 |
| 20260502223103 | 44 | 275 | 3.0 | 6.0 | 0.00 | 0.00 | 0.00 | 71 | 1014.2 |
| 20260502221603 | 43 | 283 | 3.0 | 10.0 | 0.00 | 0.00 | 0.00 | 74 | 1014.2 |
| 20260502220603 | 43 | 293 | 4.0 | 10.0 | 0.00 | 0.00 | 0.00 | 74 | 1014.2 |
| 20260502215604 | 43 | 288 | 5.0 | 12.0 | 0.00 | 0.00 | 0.00 | 73 | 1014.2 |
| 20260502215103 | 43 | 295 | 6.0 | 12.0 | 0.00 | 0.00 | 0.00 | 73 | 1014.3 |
| 20260502214604 | 43 | 298 | 6.0 | 15.0 | 0.00 | 0.00 | 0.00 | 73 | 1014.3 |
| 20260502214104 | 43 | 284 | 4.0 | 10.0 | 0.00 | 0.00 | 0.00 | 72 | 1014.3 |
| 20260502213603 | 44 | 262 | 3.0 | 8.0 | 0.00 | 0.00 | 0.00 | 72 | 1014.2 |
| 20260502213104 | 44 | 287 | 5.0 | 9.0 | 0.00 | 0.00 | 0.00 | 71 | 1014.1 |
| 20260502212603 | 44 | 272 | 4.0 | 9.0 | 0.00 | 0.00 | 0.00 | 70 | 1014.1 |
| 20260502211604 | 44 | 309 | 5.0 | 12.0 | 0.00 | 0.00 | 0.00 | 68 | 1014.1 |
| 20260502211103 | 44 | 1 | 3.0 | 8.0 | 0.00 | 0.00 | 0.00 | 69 | 1014.0 |
| 20260502210603 | 44 | 316 | 1.0 | 3.0 | 0.00 | 0.00 | 0.00 | 71 | 1014.1 |
| 20260502210104 | 44 | 313 | 1.0 | 3.0 | 0.00 | 0.00 | 0.00 | 73 | 1014.1 |
| 20260502205603 | 44 | 243 | 4.0 | 7.0 | 0.00 | 0.00 | 0.00 | 72 | 1014.0 |
| 20260502205103 | 43 | 260 | 2.0 | 3.0 | 0.00 | 0.00 | 0.00 | 72 | 1014.1 |
| 20260502204604 | 44 | 259 | 4.0 | 9.0 | 0.00 | 0.00 | 0.00 | 72 | 1014.1 |
| 20260502204103 | 44 | 295 | 3.0 | 9.0 | 0.00 | 0.00 | 0.00 | 72 | 1014.1 |
| 20260502203603 | 44 | 298 | 4.0 | 9.0 | 0.00 | 0.00 | 0.00 | 71 | 1014.1 |
| 20260502203103 | 44 | 295 | 5.0 | 13.0 | 0.00 | 0.00 | 0.00 | 70 | 1014.2 |
| 20260502202104 | 44 | 292 | 4.0 | 9.0 | 0.00 | 0.00 | 0.00 | 71 | 1014.1 |
| 20260502201603 | 45 | 265 | 3.0 | 12.0 | 0.00 | 0.00 | 0.00 | 70 | 1014.2 |
| 20260502201103 | 45 | 269 | 3.0 | 10.0 | 0.00 | 0.00 | 0.00 | 70 | 1014.3 |
| 20260502200603 | 45 | 273 | 4.0 | 10.0 | 0.00 | 0.00 | 0.00 | 69 | 1014.3 |
| 20260502195603 | 45 | 278 | 3.0 | 8.0 | 0.00 | 0.00 | 0.00 | 65 | 1014.5 |
| 20260502195103 | 46 | 284 | 3.0 | 9.0 | 0.00 | 0.00 | 0.00 | 64 | 1014.5 |
| 20260502194603 | 46 | 341 | 6.0 | 14.0 | 0.00 | 0.00 | 0.00 | 63 | 1014.5 |
| 20260502194104 | 47 | 305 | 3.0 | 10.0 | 0.00 | 0.00 | 0.00 | 61 | 1014.5 |
| 20260502193603 | 47 | 319 | 6.0 | 12.0 | 0.00 | 0.00 | 0.00 | 62 | 1014.5 |
| 20260502192603 | 48 | 327 | 5.0 | 9.0 | 0.00 | 0.00 | 0.00 | 63 | 1014.5 |
| 20260502192103 | 47 | 310 | 6.0 | 10.0 | 0.00 | 0.00 | 0.00 | 62 | 1014.6 |
| 20260502191604 | 47 | 318 | 7.0 | 14.0 | 0.00 | 0.00 | 0.00 | 63 | 1014.6 |
| 20260502191103 | 48 | 338 | 7.0 | 12.0 | 0.00 | 0.00 | 0.00 | 64 | 1014.6 |
| 20260502190604 | 47 | 337 | 3.0 | 12.0 | 0.00 | 0.00 | 0.00 | 68 | 1014.6 |
| 20260502190103 | 47 | 325 | 5.0 | 12.0 | 0.00 | 0.00 | 0.00 | 64 | 1014.6 |
| 20260502185103 | 45 | 13 | 3.0 | 10.0 | 0.00 | 0.00 | 0.00 | 68 | 1014.6 |
| 20260502184604 | 45 | 0 | 6.0 | 12.0 | 0.00 | 0.00 | 0.00 | 67 | 1014.7 |
| 20260502183604 | 46 | 348 | 2.0 | 7.0 | 0.00 | 0.00 | 0.00 | 70 | 1014.6 |
| 20260502182606 | 46 | 315 | 9.0 | 16.0 | 0.00 | 0.00 | 0.00 | 65 | 1014.7 |
| 20260502182103 | 46 | 318 | 5.0 | 12.0 | 0.00 | 0.00 | 0.00 | 66 | 1014.6 |
| 20260502181604 | 46 | 358 | 6.0 | 13.0 | 0.00 | 0.00 | 0.00 | 68 | 1014.7 |
| 20260502181104 | 46 | 304 | 5.0 | 12.0 | 0.00 | 0.00 | 0.00 | 67 | 1014.8 |
| 20260502180603 | 45 | 309 | 7.0 | 12.0 | 0.00 | 0.00 | 0.00 | 69 | 1014.8 |
| 20260502180104 | 45 | 333 | 5.0 | 16.0 | 0.00 | 0.00 | 0.00 | 68 | 1014.8 |
| 20260502170104 | 47 | 323 | 5.0 | 12.0 | 0.00 | 0.01 | 0.00 | 74 | 1014.5 |
| 20260502163604 | 45 | 351 | 10.0 | 15.0 | 0.00 | 0.02 | 0.00 | 71 | 1014.8 |
| 20260502163103 | 46 | 307 | 3.0 | 8.0 | 0.00 | 0.02 | 0.00 | 72 | 1014.8 |
| 20260502162603 | 44 | 294 | 6.0 | 10.0 | 0.00 | 0.03 | 0.00 | 72 | 1014.8 |
| 20260502162103 | 44 | 25 | 7.0 | 14.0 | 0.00 | 0.03 | 0.00 | 68 | 1014.8 |
| 20260502161603 | 46 | 302 | 7.0 | 15.0 | 0.00 | 0.03 | 0.00 | 70 | 1014.8 |
| 20260502161103 | 46 | 14 | 4.0 | 12.0 | 0.00 | 0.03 | 0.00 | 70 | 1014.8 |
| 20260502160604 | 46 | 344 | 5.0 | 12.0 | 0.00 | 0.04 | 0.00 | 69 | 1014.8 |
| 20260502160106 | 45 | 313 | 6.0 | 12.0 | 0.00 | 0.04 | 0.00 | 72 | 1014.8 |
| 20260502152104 | 44 | 343 | 5.0 | 12.0 | 0.00 | 0.05 | 0.00 | 67 | 1014.7 |
| 20260502151104 | 44 | 338 | 6.0 | 12.0 | 0.00 | 0.05 | 0.00 | 67 | 1014.7 |
| 20260502150605 | 43 | 347 | 6.0 | 13.0 | 0.00 | 0.05 | 0.00 | 63 | 1014.7 |
| 20260502130605 | 43 | 305 | 5.0 | 12.0 | 0.00 | 0.05 | 0.00 | 72 | 1015.3 |
| 20260502130104 | 41 | 316 | 6.0 | 12.0 | 0.00 | 0.05 | 0.00 | 71 | 1015.2 |
| 20260502123604 | 40 | 320 | 5.0 | 10.0 | 0.00 | 0.05 | 0.00 | 77 | 1015.2 |
| 20260502123103 | 40 | 350 | 5.0 | 13.0 | 0.00 | 0.05 | 0.00 | 78 | 1015.2 |
| 20260502122603 | 40 | 331 | 7.0 | 12.0 | 0.00 | 0.05 | 0.00 | 77 | 1015.1 |
| 20260502121604 | 39 | 341 | 4.0 | 12.0 | 0.00 | 0.05 | 0.00 | 79 | 1015.1 |
| 20260502120603 | 39 | 351 | 6.0 | 15.0 | 0.00 | 0.05 | 0.00 | 78 | 1015.1 |
| 20260502120104 | 39 | 335 | 5.0 | 13.0 | 0.00 | 0.05 | 0.00 | 79 | 1015.1 |
| 20260502115603 | 39 | 322 | 5.0 | 12.0 | 0.00 | 0.05 | 0.00 | 79 | 1015.1 |
| 20260502115104 | 39 | 334 | 6.0 | 14.0 | 0.00 | 0.05 | 0.00 | 81 | 1015.2 |
| 20260502114603 | 39 | 322 | 3.0 | 9.0 | 0.00 | 0.05 | 0.00 | 82 | 1015.2 |
| 20260502113603 | 37 | 343 | 7.0 | 12.0 | 0.00 | 0.05 | 0.00 | 83 | 1015.1 |
| 20260502113104 | 37 | 319 | 5.0 | 13.0 | 0.00 | 0.05 | 0.00 | 85 | 1015.1 |
| 20260502112603 | 36 | 329 | 3.0 | 8.0 | 0.00 | 0.05 | 0.00 | 86 | 1015.2 |
| 20260502112104 | 35 | 301 | 3.0 | 8.0 | 0.00 | 0.05 | 0.00 | 86 | 1015.0 |
| 20260502111603 | 35 | 344 | 5.0 | 9.0 | 0.00 | 0.05 | 0.00 | 86 | 1015.0 |
| 20260502111104 | 34 | 319 | 5.0 | 8.0 | 0.00 | 0.05 | 0.00 | 87 | 1015.0 |
| 20260502110604 | 34 | 344 | 3.0 | 7.0 | 0.00 | 0.05 | 0.00 | 87 | 1015.1 |
| 20260502110104 | 34 | 299 | 4.0 | 7.0 | 0.00 | 0.05 | 0.00 | 87 | 1015.1 |
| 20260502105604 | 34 | 325 | 3.0 | 10.0 | 0.00 | 0.05 | 0.00 | 88 | 1014.9 |
| 20260502104604 | 33 | 322 | 3.0 | 9.0 | 0.00 | 0.05 | 0.00 | 88 | 1015.0 |
| 20260502104103 | 33 | 311 | 4.0 | 7.0 | 0.00 | 0.05 | 0.00 | 88 | 1014.9 |
| 20260502103603 | 33 | 309 | 1.0 | 3.0 | 0.00 | 0.05 | 0.00 | 88 | 1014.8 |
| 20260502102603 | 33 | 302 | 4.0 | 7.0 | 0.00 | 0.05 | 0.00 | 88 | 1014.8 |
| 20260502102104 | 33 | 342 | 3.0 | 9.0 | 0.00 | 0.05 | 0.00 | 89 | 1014.7 |
| 20260502101603 | 33 | 321 | 4.0 | 9.0 | 0.00 | 0.05 | 0.00 | 89 | 1014.7 |
| 20260502101103 | 33 | 310 | 3.0 | 9.0 | 0.00 | 0.05 | 0.00 | 89 | 1014.8 |
| 20260502100104 | 33 | 318 | 3.0 | 8.0 | 0.00 | 0.05 | 0.00 | 89 | 1014.7 |
| 20260502091104 | 33 | 310 | 3.0 | 6.0 | 0.00 | 0.05 | 0.00 | 89 | 1014.4 |
| 20260502090604 | 33 | 303 | 2.0 | 5.0 | 0.00 | 0.05 | 0.00 | 88 | 1014.3 |
| 20260502090104 | 33 | 310 | 2.0 | 6.0 | 0.00 | 0.05 | 0.00 | 88 | 1014.2 |
| 20260502080104 | 35 | 336 | 4.0 | 8.0 | 0.00 | 0.05 | 0.00 | 86 | 1013.8 |
| 20260502070604 | 36 | 349 | 5.0 | 9.0 | 0.00 | 0.05 | 0.00 | 86 | 1014.0 |
| 20260502070104 | 36 | 328 | 3.0 | 8.0 | 0.00 | 0.05 | 0.00 | 86 | 1014.0 |
| 20260502065604 | 36 | 336 | 6.0 | 9.0 | 0.00 | 0.05 | 0.00 | 86 | 1014.0 |
| 20260502065104 | 36 | 320 | 4.0 | 12.0 | 0.00 | 0.05 | 0.00 | 86 | 1014.0 |
| 20260502064604 | 36 | 329 | 3.0 | 8.0 | 0.00 | 0.05 | 0.00 | 86 | 1014.0 |
| 20260502064104 | 35 | 316 | 3.0 | 6.0 | 0.00 | 0.05 | 0.00 | 86 | 1014.1 |
| 20260502063603 | 35 | 314 | 3.0 | 8.0 | 0.00 | 0.05 | 0.00 | 85 | 1014.1 |
| 20260502062605 | 36 | 309 | 2.0 | 5.0 | 0.00 | 0.05 | 0.00 | 85 | 1014.0 |
| 20260502062104 | 36 | 324 | 3.0 | 5.0 | 0.00 | 0.05 | 0.00 | 85 | 1014.0 |
| 20260502061605 | 36 | 328 | 2.0 | 3.0 | 0.00 | 0.05 | 0.00 | 85 | 1014.0 |
| 20260502061104 | 37 | 321 | 3.0 | 3.0 | 0.00 | 0.05 | 0.00 | 85 | 1014.0 |
| 20260502060604 | 37 | 330 | 3.0 | 6.0 | 0.00 | 0.05 | 0.00 | 85 | 1014.1 |
| 20260502060104 | 37 | 327 | 2.0 | 3.0 | 0.00 | 0.05 | 0.00 | 85 | 1014.1 |
| 20260502055604 | 37 | 330 | 1.0 | 3.0 | 0.00 | 0.05 | 0.00 | 85 | 1014.1 |
| 20260502054604 | 38 | 340 | 2.0 | 6.0 | 0.00 | 0.05 | 0.00 | 85 | 1014.2 |
| 20260502054104 | 38 | 351 | 2.0 | 5.0 | 0.00 | 0.05 | 0.00 | 84 | 1014.2 |
| 20260502053604 | 38 | 7 | 2.0 | 7.0 | 0.00 | 0.05 | 0.00 | 84 | 1014.2 |
| 20260502053104 | 38 | 340 | 3.0 | 6.0 | 0.00 | 0.05 | 0.00 | 84 | 1014.3 |
| 20260502052604 | 38 | 346 | 2.0 | 3.0 | 0.00 | 0.05 | 0.00 | 83 | 1014.2 |
| 20260502052104 | 38 | 341 | 2.0 | 3.0 | 0.00 | 0.05 | 0.00 | 83 | 1014.1 |
| 20260502051604 | 38 | 346 | 2.0 | 3.0 | 0.00 | 0.05 | 0.00 | 82 | 1014.1 |
| 20260502051105 | 38 | 355 | 1.0 | 3.0 | 0.00 | 0.05 | 0.00 | 82 | 1013.9 |
| 20260502050604 | 39 | 351 | 1.0 | 6.0 | 0.00 | 0.05 | 0.00 | 82 | 1013.9 |
| 20260502050104 | 39 | 27 | 1.0 | 8.0 | 0.00 | 0.05 | 0.00 | 81 | 1013.8 |
| 20260502045604 | 39 | 345 | 2.0 | 7.0 | 0.00 | 0.05 | 0.00 | 81 | 1013.8 |
| 20260502045104 | 39 | 25 | 5.0 | 12.0 | 0.00 | 0.05 | 0.00 | 81 | 1013.7 |
| 20260502044604 | 39 | 6 | 3.0 | 9.0 | 0.00 | 0.05 | 0.00 | 81 | 1013.6 |
| 20260502044105 | 39 | 0 | 3.0 | 8.0 | 0.00 | 0.05 | 0.00 | 80 | 1013.7 |
| 20260502043604 | 39 | 353 | 3.0 | 8.0 | 0.00 | 0.05 | 0.00 | 80 | 1013.6 |
| 20260502043104 | 39 | 0 | 6.0 | 12.0 | 0.00 | 0.05 | 0.00 | 79 | 1013.5 |
| 20260502042604 | 39 | 354 | 6.0 | 13.0 | 0.00 | 0.05 | 0.00 | 79 | 1013.5 |
| 20260502042103 | 40 | 355 | 4.0 | 12.0 | 0.00 | 0.05 | 0.00 | 78 | 1013.4 |
| 20260502041604 | 40 | 344 | 6.0 | 12.0 | 0.00 | 0.05 | 0.00 | 77 | 1013.4 |